Content
SEND FEEDBACK

Daily
Averages
Monthly
Summary
United States of America

TAMUNING, GUAM


Home > North America > United States > Guam
Elevation: 250 feet     Latitude: 13 29N     Longitude: 144 47E

WEATHER
 
SELECT A DAY
Number of Records: 342,764;   Date Range: 1/1/95 - 9/22/14
 
SHARE

PRINT THIS DATA

[ ← Previous Day ]
WEATHER ALMANAC - MAY 25, 2013
[ Next Day → ]
[ °C ]   °F
Weather ElementAverageHighLow
Temperature82 °F86.5 °F (1:55 pm)78.8 °F (3:09 am)
Dewpoint74.5 °F75.7 °F (3:55 pm)73.2 °F (9:55 pm)
Humidity78.2 %89 % (5:27 am)68 % (1:55 pm)
Barometer29.84 in29.90 in (10:55 pm)29.81 in (2:44 am)
Wind Speed9.2 mph12.7 mph (1:55 pm)
Wind Gust18.4 mph (1:55 pm)
Weather ElementAverage
Visibility10 mi
Wind DirectionESE (107.7 °)

Weather ElementTotal
Precipitation---
Cooling Degree Days17.7 (Base 65)
Growing Degree Days32.7 (Base 50)
Averaged from 35 records on May 25, 2013
WEATHER CONDITIONS BREAKOUT
WIND DIRECTION BREAKOUT
WEATHER BY HOUR - MAY 25, 2013
[ °C ]   °F
Local TimeTemperatureDewpointHumidityBarometerVisibilityWind DirectionWind SpeedGust SpeedPrecipitationEventsConditions
1:55 AM79.7 °F74.5 °F84 %29.82 in10.0 miESE (110°)8.1 mphScattered Clouds
2:44 AM80.6 °F75.2 °F84 %29.81 in10.0 miEast (80°)5.8 mphMostly Cloudy
2:48 AM80.6 °F75.2 °F84 %29.82 in10.0 miEast (80°)4.6 mphRainLight Rain
2:55 AM80.1 °F74.5 °F83 %29.81 in10.0 miESE (120°)11.5 mph0.00 inRainLight Rain
2:59 AM80.6 °F73.4 °F79 %29.81 in10.0 miESE (110°)10.4 mphMostly Cloudy
3:09 AM78.8 °F73.4 °F83 %29.82 in10.0 miEast (100°)8.1 mphScattered Clouds
3:55 AM79.2 °F73.4 °F82 %29.82 in10.0 miESE (120°)8.1 mph0.00 inClear
4:55 AM79.0 °F74.1 °F85 %29.82 in10.0 miESE (120°)9.2 mphPartly Cloudy
5:27 AM78.8 °F75.2 °F89 %29.83 in10.0 miESE (110°)8.1 mphRainLight Rain
5:37 AM78.8 °F75.2 °F89 %29.83 in10.0 miESE (120°)8.1 mphRainLight Rain
5:42 AM78.8 °F75.2 °F89 %29.83 in10.0 miESE (120°)6.9 mphMostly Cloudy
5:55 AM79.0 °F74.3 °F85 %29.83 in10.0 miSE (130°)9.2 mph0.00 inMostly Cloudy
5:59 AM78.8 °F73.4 °F83 %29.83 in10.0 miESE (120°)6.9 mphScattered Clouds
6:55 AM80.8 °F74.5 °F81 %29.85 in10.0 miESE (110°)8.1 mphScattered Clouds
7:55 AM83.5 °F75.0 °F76 %29.87 in10.0 miEast (90°)9.2 mphScattered Clouds
8:55 AM84.9 °F74.7 °F71 %29.88 in10.0 miESE (110°)9.2 mphPartly Cloudy
9:55 AM85.6 °F74.7 °F70 %29.88 in10.0 miESE (120°)11.5 mphPartly Cloudy
10:26 AM84.2 °F75.2 °F74 %29.87 in10.0 miESE (120°)9.2 mphMostly Cloudy
10:31 AM86.0 °F75.2 °F70 %29.87 in10.0 miESE (120°)10.4 mphMostly Cloudy
10:55 AM86.0 °F75.4 °F70 %29.87 in10.0 miESE (120°)11.5 mphScattered Clouds
11:55 AM86.4 °F75.2 °F69 %29.86 in10.0 miESE (110°)10.4 mphPartly Cloudy
12:55 PM86.4 °F75.0 °F69 %29.85 in10.0 miESE (110°)10.4 mphPartly Cloudy
1:55 PM86.5 °F75.0 °F68 %29.83 in10.0 miESE (110°)12.7 mph18.4 mphClear
2:55 PM86.2 °F75.4 °F70 %29.81 in10.0 miESE (110°)12.7 mphPartly Cloudy
3:55 PM85.8 °F75.7 °F72 %29.81 in10.0 miEast (100°)11.5 mphClear
4:55 PM84.4 °F74.8 °F73 %29.81 in10.0 miEast (100°)10.4 mphClear
5:55 PM83.1 °F73.4 °F72 %29.83 in10.0 miESE (120°)9.2 mphPartly Cloudy
6:30 PM82.4 °F75.2 °F79 %29.84 in10.0 miESE (110°)9.2 mphRainLight Rain
6:40 PM82.4 °F75.2 °F79 %29.84 in10.0 miEast (90°)10.4 mphScattered Clouds
6:55 PM81.1 °F73.8 °F78 %29.84 in10.0 miEast (100°)9.2 mph0.00 inClear
7:55 PM80.8 °F73.8 °F79 %29.86 in10.0 miESE (110°)8.1 mphPartly Cloudy
8:55 PM80.4 °F73.8 °F80 %29.87 in10.0 miEast (90°)8.1 mphClear
9:55 PM81.0 °F73.2 °F77 %29.89 in10.0 miEast (100°)6.9 mphPartly Cloudy
10:55 PM80.2 °F73.8 °F81 %29.90 in10.0 miEast (100°)8.1 mphClear
11:55 PM80.2 °F73.9 °F81 %29.89 in10.0 miEast (80°)10.4 mphPartly Cloudy
Hourly data recorded from PGUA, located miles away from Tamuning, Guam







STORIES FROM OUR PARTNERS